When you browse on this site, cookies collect data to enhance your experience and personalize the content and advertising you see.
Visit our Privacy Policy to learn more. By continuing to use the site, you agree to this use of cookies and data.
  • en France
  • Liste des pays
  • À 7 jours
  • Température de l'eau
  • Carte satellitaire
  • Carte météo
  • Widgets météo
  • user-avatar
    Se connecter

    Météo par heure à Cachungo

    Ce jour, 21 Juillet, Dimanche

    Heure Température Précipitation Vent Pression Humidité
    00:00 +27°C° 0 mm 1 m/s 758 mmHg 87%
    01:00 +27°C° 0 mm 1 m/s 758 mmHg 88%
    02:00 +25°C° 0 mm 0 m/s 757 mmHg 88%
    03:00 +27°C° 0 mm 1 m/s 757 mmHg 89%
    04:00 +27°C° 0 mm 1 m/s 757 mmHg 89%
    05:00 +25°C° 0 mm 0 m/s 757 mmHg 89%
    06:00 +28°C° 0 mm 1 m/s 758 mmHg 85%
    07:00 +28°C° 0 mm 1 m/s 758 mmHg 81%
    08:00 +29°C° 0 mm 1 m/s 758 mmHg 77%
    09:00 +31°C° 0 mm 2 m/s 758 mmHg 70%
    10:00 +33°C° 0 mm 3 m/s 758 mmHg 64%
    11:00 +34°C° 0 mm 3 m/s 758 mmHg 58%
    12:00 +34°C° 0.3 mm 3 m/s 758 mmHg 58%
    13:00 +34°C° 0.3 mm 3 m/s 757 mmHg 57%
    14:00 +34°C° 0.3 mm 3 m/s 757 mmHg 57%
    15:00 +33°C° 0.6 mm 3 m/s 757 mmHg 61%
    16:00 +32°C° 0.6 mm 4 m/s 757 mmHg 65%
    17:00 +32°C° 0.6 mm 4 m/s 756 mmHg 69%
    18:00 +30°C° 0 mm 3 m/s 757 mmHg 73%
    19:00 +29°C° 0 mm 3 m/s 758 mmHg 77%
    20:00 +28°C° 0 mm 3 m/s 758 mmHg 81%
    21:00 +28°C° 0 mm 3 m/s 758 mmHg 82%
    22:00 +27°C° 0 mm 3 m/s 758 mmHg 83%
    23:00 +27°C° 0 mm 3 m/s 759 mmHg 84%

    Demain, 22 Juillet, Lundi

    Heure Température Précipitation Vent Pression Humidité
    00:00 +27°C° 0 mm 2 m/s 758 mmHg 85%
    01:00 +27°C° 0 mm 2 m/s 758 mmHg 86%
    02:00 +27°C° 0 mm 2 m/s 757 mmHg 87%
    03:00 +26°C° 0 mm 2 m/s 757 mmHg 88%
    04:00 +26°C° 0 mm 2 m/s 758 mmHg 89%
    05:00 +26°C° 0 mm 2 m/s 758 mmHg 89%
    06:00 +27°C° 0.1 mm 2 m/s 758 mmHg 85%
    07:00 +28°C° 0.1 mm 3 m/s 759 mmHg 81%
    08:00 +29°C° 0.1 mm 3 m/s 759 mmHg 77%
    09:00 +29°C° 0.4 mm 2 m/s 759 mmHg 77%
    10:00 +29°C° 0.4 mm 2 m/s 758 mmHg 76%
    11:00 +29°C° 0.4 mm 2 m/s 758 mmHg 76%
    12:00 +28°C° 0 mm 2 m/s 757 mmHg 77%
    13:00 +28°C° 0 mm 3 m/s 757 mmHg 79%
    14:00 +28°C° 0 mm 4 m/s 756 mmHg 81%
    15:00 +29°C° 0 mm 4 m/s 756 mmHg 76%
    16:00 +30°C° 0 mm 4 m/s 755 mmHg 71%
    17:00 +32°C° 0 mm 4 m/s 755 mmHg 66%
    18:00 +29°C° 0 mm 4 m/s 756 mmHg 71%
    19:00 +28°C° 0 mm 3 m/s 756 mmHg 76%
    20:00 +27°C° 0 mm 3 m/s 757 mmHg 81%
    21:00 +27°C° 0 mm 3 m/s 757 mmHg 83%
    22:00 +27°C° 0 mm 2 m/s 757 mmHg 85%
    23:00 +26°C° 0 mm 2 m/s 757 mmHg 87%

    Après-demain, 23 Juillet, Mardi

    Heure Température Précipitation Vent Pression Humidité
    00:00 +26°C° 0 mm 2 m/s 757 mmHg 88%
    01:00 +26°C° 0 mm 2 m/s 756 mmHg 90%
    02:00 +26°C° 0 mm 2 m/s 756 mmHg 91%
    03:00 +26°C° 0 mm 1 m/s 756 mmHg 91%
    04:00 +26°C° 0 mm 1 m/s 756 mmHg 91%
    05:00 +26°C° 0 mm 1 m/s 756 mmHg 91%
    06:00 +27°C° 0 mm 1 m/s 756 mmHg 85%
    07:00 +28°C° 0 mm 2 m/s 756 mmHg 79%
    08:00 +29°C° 0 mm 2 m/s 757 mmHg 73%
    09:00 +30°C° 0 mm 2 m/s 757 mmHg 67%
    10:00 +32°C° 0 mm 2 m/s 757 mmHg 62%
    11:00 +34°C° 0 mm 2 m/s 757 mmHg 57%
    12:00 +34°C° 0 mm 3 m/s 756 mmHg 56%
    13:00 +34°C° 0 mm 3 m/s 756 mmHg 56%
    14:00 +34°C° 0 mm 3 m/s 755 mmHg 56%
    15:00 +33°C° 0 mm 4 m/s 755 mmHg 60%
    16:00 +32°C° 0 mm 4 m/s 755 mmHg 64%
    17:00 +30°C° 0 mm 5 m/s 755 mmHg 68%
    18:00 +29°C° 0 mm 4 m/s 755 mmHg 72%
    19:00 +29°C° 0 mm 4 m/s 756 mmHg 76%
    20:00 +28°C° 0 mm 3 m/s 756 mmHg 80%
    21:00 +28°C° 0 mm 3 m/s 757 mmHg 81%
    22:00 +28°C° 0 mm 3 m/s 757 mmHg 82%
    23:00 +27°C° 0 mm 3 m/s 757 mmHg 83%

    24 Juillet, Mercredi

    Heure Température Précipitation Vent Pression Humidité
    00:00 +27°C° 0.1 mm 3 m/s 757 mmHg 84%
    01:00 +27°C° 0.1 mm 3 m/s 756 mmHg 85%
    02:00 +27°C° 0.1 mm 3 m/s 756 mmHg 86%
    03:00 +27°C° 0.2 mm 2 m/s 756 mmHg 87%
    04:00 +27°C° 0.2 mm 2 m/s 756 mmHg 89%
    05:00 +26°C° 0.2 mm 2 m/s 756 mmHg 90%
    06:00 +27°C° 1.5 mm 2 m/s 757 mmHg 86%
    07:00 +28°C° 1.5 mm 2 m/s 757 mmHg 82%
    08:00 +29°C° 1.5 mm 2 m/s 758 mmHg 78%
    09:00 +29°C° 2 mm 2 m/s 758 mmHg 80%
    10:00 +28°C° 2 mm 1 m/s 758 mmHg 81%
    11:00 +28°C° 2 mm 1 m/s 758 mmHg 83%
    12:00 +27°C° 3.5 mm 1 m/s 757 mmHg 86%
    13:00 +27°C° 3.5 mm 1 m/s 757 mmHg 90%
    14:00 +26°C° 3.5 mm 1 m/s 756 mmHg 93%
    15:00 +26°C° 8.1 mm 2 m/s 756 mmHg 95%
    16:00 +26°C° 8.1 mm 2 m/s 756 mmHg 96%
    17:00 +25°C° 8.1 mm 2 m/s 756 mmHg 97%
    18:00 +25°C° 5.4 mm 2 m/s 756 mmHg 97%
    19:00 +25°C° 5.4 mm 2 m/s 757 mmHg 96%
    20:00 +25°C° 5.4 mm 2 m/s 757 mmHg 96%
    21:00 +25°C° 1.9 mm 3 m/s 757 mmHg 96%
    22:00 +25°C° 1.9 mm 3 m/s 758 mmHg 96%
    23:00 +26°C° 1.9 mm 3 m/s 758 mmHg 96%

    25 Juillet, Jeudi

    Heure Température Précipitation Vent Pression Humidité
    00:00 +26°C° 1.2 mm 3 m/s 758 mmHg 95%
    01:00 +26°C° 1.2 mm 3 m/s 757 mmHg 95%
    02:00 +26°C° 1.2 mm 3 m/s 757 mmHg 94%
    03:00 +26°C° 1.3 mm 3 m/s 757 mmHg 94%
    04:00 +26°C° 1.3 mm 3 m/s 757 mmHg 94%
    05:00 +26°C° 1.3 mm 3 m/s 757 mmHg 93%
    06:00 +26°C° 2.3 mm 3 m/s 758 mmHg 93%
    07:00 +26°C° 2.3 mm 3 m/s 758 mmHg 92%
    08:00 +26°C° 2.3 mm 3 m/s 759 mmHg 92%
    09:00 +26°C° 1.5 mm 2 m/s 758 mmHg 91%
    10:00 +27°C° 1.5 mm 2 m/s 758 mmHg 90%
    11:00 +27°C° 1.5 mm 2 m/s 758 mmHg 89%
    12:00 +27°C° 1.6 mm 2 m/s 758 mmHg 88%
    13:00 +27°C° 1.6 mm 2 m/s 758 mmHg 88%
    14:00 +27°C° 1.6 mm 2 m/s 757 mmHg 88%
    15:00 +27°C° 1.4 mm 3 m/s 757 mmHg 89%
    16:00 +27°C° 1.4 mm 3 m/s 757 mmHg 89%
    17:00 +27°C° 1.4 mm 3 m/s 757 mmHg 90%
    18:00 +26°C° 0.8 mm 3 m/s 757 mmHg 92%
    19:00 +26°C° 0.8 mm 3 m/s 758 mmHg 93%
    20:00 +26°C° 0.8 mm 3 m/s 758 mmHg 94%
    21:00 +26°C° 0.3 mm 3 m/s 759 mmHg 95%
    22:00 +26°C° 0.3 mm 3 m/s 759 mmHg 95%
    23:00 +26°C° 0.3 mm 3 m/s 759 mmHg 95%

    26 Juillet, Vendredi

    Heure Température Précipitation Vent Pression Humidité
    00:00 +26°C° 0.1 mm 2 m/s 758 mmHg 95%
    01:00 +26°C° 0.1 mm 2 m/s 758 mmHg 95%
    02:00 +26°C° 0.1 mm 2 m/s 758 mmHg 95%
    03:00 +25°C° 0.2 mm 2 m/s 758 mmHg 95%
    04:00 +25°C° 0.2 mm 2 m/s 758 mmHg 96%
    05:00 +25°C° 0.2 mm 2 m/s 758 mmHg 96%
    06:00 +26°C° 0.1 mm 2 m/s 758 mmHg 93%
    07:00 +27°C° 0.1 mm 2 m/s 758 mmHg 89%
    08:00 +28°C° 0.1 mm 2 m/s 759 mmHg 86%
    09:00 +29°C° 0.2 mm 2 m/s 759 mmHg 80%
    10:00 +30°C° 0.2 mm 2 m/s 759 mmHg 74%
    11:00 +31°C° 0.2 mm 2 m/s 759 mmHg 69%
    12:00 +32°C° 1.6 mm 2 m/s 758 mmHg 69%
    13:00 +33°C° 1.6 mm 3 m/s 757 mmHg 69%
    14:00 +33°C° 1.6 mm 3 m/s 757 mmHg 70%
    15:00 +31°C° 2.1 mm 3 m/s 757 mmHg 73%
    16:00 +30°C° 2.1 mm 3 m/s 756 mmHg 77%
    17:00 +29°C° 2.1 mm 4 m/s 756 mmHg 81%
    18:00 +29°C° 0 mm 3 m/s 757 mmHg 83%
    19:00 +28°C° 0 mm 3 m/s 757 mmHg 86%
    20:00 +27°C° 0 mm 3 m/s 758 mmHg 88%
    21:00 +27°C° 0.1 mm 3 m/s 758 mmHg 89%
    22:00 +27°C° 0.1 mm 3 m/s 758 mmHg 90%
    23:00 +26°C° 0.1 mm 3 m/s 758 mmHg 91%
    Voir plus